Location: R�o Medio
(42.4667°N, 3.0167°W)
Time: 07:13:31
(UTC+00:00)

Lacrosse 5 rocket - Pass Details

Date: 27 February 2020
Orbit: 461 x 635 km, 57.0° (Epoch: 30 March)

Event Time Altitude Azimuth Distance (km) Brightness Sun altitude
Rises 20:18:33 0° 317° (NW) 2,904 5.9 -26.4°
Reaches altitude 10° 20:20:58 10° 325° (NW) 2,010 4.8 -26.9°
Enters shadow 20:23:50 30° 354° (N) 1,129 3.0 -27.4°
